This is the latest recevied weather packets stored in our database for station/object OK1HOL-13. If no packets are shown the sender has not sent any weather packets the latest 10 day(s).
| Time | Temp. | Humidity | Pressure | Rain* | Wind** | Luminosity | Snow |
|---|---|---|---|---|---|---|---|
| 1778165167 | 17.22° C | 47% | 1012.6 hPa | - | - | 52 W/m² | - |
| 1778164572 | 17.78° C | 46% | 1012.5 hPa | - | - | 50 W/m² | - |
| 1778163967 | 17.78° C | 46% | 1012.4 hPa | - | - | 81 W/m² | - |
| 1778163367 | 18.33° C | 44% | 1012.3 hPa | - | - | 90 W/m² | - |
| 1778162767 | 18.89° C | 42% | 1012.4 hPa | - | - | 431 W/m² | - |
| 1778162172 | 18.89° C | 42% | 1012.4 hPa | - | - | 431 W/m² | - |
| 1778161567 | 18.33° C | 44% | 1012.5 hPa | - | - | 431 W/m² | - |
| 1778160967 | 17.78° C | 45% | 1012.6 hPa | - | - | 128 W/m² | - |
| 1778160367 | 18.33° C | 44% | 1012.3 hPa | - | - | 153 W/m² | - |
| 1778159770 | 18.33° C | 43% | 1012.4 hPa | - | - | 0 W/m² | - |
| 1778159166 | 18.33° C | 44% | 1012.5 hPa | - | - | 358 W/m² | - |
| 1778158566 | 17.78° C | 44% | 1012.5 hPa | - | - | 244 W/m² | - |
| 1778157966 | 18.33° C | 43% | 1012.4 hPa | - | - | 220 W/m² | - |
| 1778157366 | 17.78° C | 44% | 1012.5 hPa | - | - | 231 W/m² | - |
| 1778156766 | 18.33° C | 43% | 1012.5 hPa | - | - | 431 W/m² | - |
| 1778156166 | 17.22° C | 46% | 1012.5 hPa | - | - | 280 W/m² | - |
| 1778155566 | 16.67° C | 49% | 1012.3 hPa | - | - | 166 W/m² | - |
| 1778154966 | 16.11° C | 48% | 1012.4 hPa | - | - | 181 W/m² | - |
| 1778154366 | 16.11° C | 49% | 1012.5 hPa | - | - | 114 W/m² | - |
| 1778153766 | 16.67° C | 47% | 1012.3 hPa | - | - | 198 W/m² | - |
| 1778153166 | 16.67° C | 47% | 1012.2 hPa | - | - | 154 W/m² | - |
| 1778152566 | 16.67° C | 47% | 1012.4 hPa | - | - | 184 W/m² | - |
| 1778151966 | 16.67° C | 49% | 1012.3 hPa | - | - | 138 W/m² | - |
| 1778151366 | 16.67° C | 48% | 1012.2 hPa | - | - | 108 W/m² | - |
| 1778150766 | 16.67° C | 49% | 1012.1 hPa | - | - | 143 W/m² | - |
* Rain since midnight (hover to see other rain measurements)
** Current wind speed in m/s (hover to see current wind gust speed)